Snowfall_Accumulation
0.0 0.0 0.0 0.0 0.0 0.0 0.0 0.0 0.0 0.0 0.0 0.0 0.0 0.0 0.0 0.0 0.0 0.0 0.0 0.0 0.0 0.0 0.0 0.0 0.0 0.0 0.0 0.0 0.0 0.0 0.0 0.0 0.0 0.0 0.0 0.0 0.0 0.0 0.0 0.0 0.0 0.0 0.0 0.0
0.0 0.0 0.0 0.0 0.0 0.0 0.0 0.0 0.0 0.0 0.0 0.0 0.0 0.0 0.0 0.0 0.0 0.0 0.0 0.0 0.0 0.0 0.0 0.0 0.0 0.0 0.0 0.0 0.0 0.0 0.0 0.0 0.0 0.0 0.0 0.0 0.0 0.0 0.0 0.0 0.0 0.0 0.0 0.0
0.0 0.0 0.0 0.0 0.0 0.0 0.0 0.0 0.0 0.0 0.0 0.0 0.0 0.0 0.0 0.0 0.0 0.0 0.0 0.0 0.0 0.0 0.0 0.0 0.0 0.0 0.0 0.0 0.0 0.0 0.0 0.0 0.0 0.0 0.0 0.0 0.0 0.0 0.0 0.0 0.0 0.0 0.0 0.0
0.0 0.0 0.0 0.0 0.0 0.0 0.0 0.0 0.0 0.0 0.0 0.0 0.0 0.4 0.0 0.0 0.0 0.0 0.0 0.0 0.0 0.0 0.0 0.0 0.0 0.0 0.0 0.0 0.0 0.0 0.0 0.0 0.0 0.0 0.0 0.0 0.0 0.0 0.0 0.0 0.0 0.0 0.0 0.0
0.2 0.0 0.0 0.0 0.0 0.0 0.1 0.0 0.0 0.0 0.0 0.0 0.0 0.4 0.0 0.0 0.0 0.3 0.0 0.0 0.0 0.0 0.0 0.0 0.0 0.0 0.0 0.0 0.0 0.0 0.0 0.0 0.0 0.0 0.0 0.0 0.0 0.0 0.0 0.0 0.0 0.0 0.0 0.0
0.0 0.0 0.0 0.0 0.0 0.0 0.0 0.0 0.0 0.0 0.1 0.5 0.0 0.0 0.0 2.7 4.3 2.2 1.5 1.0 0.4 0.0 0.0 0.0 0.0 0.0 0.0 0.0 0.0 0.0 0.0 0.0 0.0 0.0 0.0 0.0 0.0 0.0 0.0 0.0 0.0 0.0 0.0 0.0
0.0 0.0 0.0 0.0 0.0 0.0 0.0 0.3 0.6 0.6 0.7 0.0 0.0 0.2 1.7 3.3 3.0 3.0 2.7 1.7 1.6 0.7 0.8 0.6 0.0 0.0 0.0 0.0 0.0 0.0 0.0 0.0 0.0 0.0 0.0 0.0 0.0 0.0 0.0 0.0 0.0 0.0 0.0 0.0
0.3 1.6 0.0 0.0 0.0 0.0 0.0 0.0 0.0 0.1 0.2 0.4 0.3 1.3 6.4 4.6 3.5 4.0 6.9 3.9 2.9 2.1 1.0 0.8 0.7 0.0 0.0 0.0 0.0 0.0 0.0 0.0 0.0 0.0 0.0 0.0 0.0 0.0 0.0 0.0 0.0 0.0 0.0 0.0
2.1 1.4 0.0 0.0 0.0 0.0 0.0 0.0 0.0 0.4 0.9 0.8 1.4 6.7 2.5 1.8 6.2 14.0 6.2 4.1 5.6 4.7 2.3 1.2 0.9 0.8 0.0 0.0 0.0 0.0 0.0 0.0 0.0 0.0 0.0 0.0 0.0 0.0 0.0 0.0 0.0 0.0 0.0 0.0
1.6 1.9 0.0 0.0 0.0 0.0 0.0 0.0 0.6 0.3 1.3 3.0 3.4 3.9 4.3 2.2 7.8 7.8 11.4 11.9 5.9 5.9 4.1 1.6 0.9 0.6 0.2 0.0 0.0 0.0 0.0 0.0 0.0 0.0 0.0 0.0 0.0 0.0 0.0 0.0 0.0 0.0 0.0 0.0
0.0 2.4 3.0 0.0 0.7 0.5 0.3 0.6 0.4 0.3 1.7 4.6 6.8 10.2 7.6 8.6 10.6 13.1 10.4 10.5 12.0 6.5 8.5 5.1 2.3 1.3 0.6 0.0 0.0 0.0 0.0 0.0 0.0 0.0 0.0 0.0 0.0 0.0 0.0 0.0 0.0 0.0 0.0 0.0
0.0 7.3 6.4 1.4 0.0 0.0 0.0 0.1 0.1 1.2 0.9 1.9 6.9 15.4 8.9 10.9 9.2 7.6 7.9 7.3 6.7 7.6 7.3 8.7 6.3 4.1 1.1 0.1 0.0 0.0 0.0 0.0 0.0 0.0 0.0 0.0 0.0 0.0 0.0 0.0 0.0 0.0 0.0 0.0
0.0 5.9 1.7 2.3 0.0 0.0 0.3 0.0 0.0 0.0 1.8 4.2 9.5 14.1 9.4 6.6 5.5 4.5 4.1 4.5 4.3 3.4 4.3 5.5 4.5 4.9 4.5 1.7 0.6 0.0 0.0 0.0 0.0 0.0 0.0 0.0 0.0 0.0 0.0 0.0 0.0 0.0 0.0 0.0
0.0 1.2 2.6 4.2 4.4 1.9 1.4 0.0 0.0 1.1 4.4 6.1 8.6 9.2 6.1 3.4 2.6 2.6 3.0 3.2 3.3 3.0 2.0 2.1 3.7 3.8 4.0 3.4 1.8 0.9 0.3 0.0 0.0 0.0 0.0 0.0 0.0 0.0 0.0 0.0 0.0 0.0 0.0 0.0
0.0 2.3 6.5 3.6 4.7 3.1 6.3 6.1 7.5 4.4 4.0 4.4 8.4 4.6 4.2 3.0 2.4 2.4 2.6 3.1 1.1 0.1 0.6 0.3 0.0 0.0 2.1 2.0 1.2 0.7 0.3 0.0 0.0 0.0 0.0 0.0 0.0 0.0 0.0 0.0 0.0 0.0 0.0 0.0
0.0 2.1 6.8 12.5 6.4 2.5 7.8 9.4 7.0 3.7 3.3 4.1 2.3 3.6 3.4 2.5 2.4 2.3 2.6 2.8 1.4 0.4 0.2 0.1 0.0 0.0 0.0 0.1 0.0 0.0 0.0 0.0 0.0 0.0 0.0 0.0 0.0 0.0 0.0 0.0 0.0 0.0 0.0 0.0
0.0 0.4 0.9 4.7 4.2 1.1 4.0 7.9 4.6 2.4 1.7 1.2 0.8 1.8 2.4 1.7 1.6 2.2 2.3 2.7 1.9 0.9 1.2 4.2 6.5 1.7 3.2 0.2 0.1 0.0 0.0 0.0 0.0 0.0 0.0 0.0 0.0 0.0 0.0 0.0 0.0 0.0 0.0 0.0
0.0 0.1 0.2 1.7 1.6 4.0 8.3 3.5 2.2 1.2 1.4 0.9 0.4 1.4 1.4 1.5 1.7 1.3 1.8 1.9 1.8 1.5 1.7 2.8 5.8 6.9 3.6 4.3 0.0 0.0 0.0 0.0 0.0 0.0 0.0 0.2 0.0 0.0 0.0 0.0 0.0 0.0 0.0 0.0
0.0 0.1 1.1 1.0 0.6 3.3 1.8 0.5 0.6 0.9 1.4 0.9 0.9 1.0 0.9 1.4 0.4 0.2 1.0 1.9 2.6 2.3 1.8 1.7 3.4 6.4 5.9 2.6 0.0 0.0 2.2 2.2 0.0 1.9 1.7 1.6 0.5 0.2 0.3 0.0 0.0 0.0 0.0 0.0
0.0 0.1 1.3 0.4 0.1 2.0 0.6 0.0 0.0 0.0 1.3 0.5 0.4 0.3 0.3 0.3 0.8 0.8 0.7 1.6 2.6 1.7 0.8 0.6 0.5 1.6 0.0 0.0 2.2 0.0 1.2 1.5 2.2 4.0 7.5 2.0 2.2 1.0 4.1 4.7 1.9 3.5 0.1 0.4
0.0 0.2 1.4 0.4 0.3 0.1 0.0 0.2 0.1 0.9 1.9 0.8 0.1 0.0 0.0 0.1 0.5 0.8 0.8 1.5 2.0 1.7 0.0 0.0 0.0 0.0 0.0 0.0 1.1 1.6 2.2 4.1 4.0 3.9 6.9 1.5 5.7 1.5 5.6 7.6 5.7 5.1 3.0 5.0
0.1 0.7 0.2 0.7 0.4 0.5 0.0 0.1 0.0 1.3 0.9 0.5 0.4 0.1 0.0 0.0 0.2 0.2 0.6 0.5 0.6 1.2 0.4 0.0 0.0 0.0 0.0 0.0 0.0 1.0 2.5 1.4 1.4 3.2 3.2 4.4 4.8 5.2 4.1 3.8 6.2 9.4 9.6 6.0
0.3 0.2 0.1 0.2 0.5 1.0 0.5 0.7 0.6 0.1 0.2 0.2 0.1 0.0 0.0 0.0 0.1 0.0 0.2 0.0 0.0 0.0 0.0 0.0 0.0 0.0 0.0 0.0 0.0 0.0 0.3 0.0 0.8 1.0 1.0 2.4 2.3 3.4 3.6 3.6 4.2 3.8 4.1 3.9
0.1 0.0 0.1 0.0 1.0 0.4 0.3 0.0 0.1 0.0 0.0 0.0 0.0 0.0 0.0 0.0 0.0 0.0 0.0 0.0 0.0 0.0 0.0 0.0 0.0 0.0 0.0 0.0 0.0 0.0 0.0 0.0 0.0 0.1 0.3 0.4 0.6 0.9 1.3 1.8 2.4 3.3 3.9 2.8
0.0 0.0 0.0 0.6 0.5 0.2 0.1 0.0 0.0 0.0 0.0 0.0 0.0 0.0 0.0 0.0 0.0 0.0 0.0 0.0 0.0 0.0 0.0 0.0 0.0 0.0 0.0 0.0 0.0 0.0 0.0 0.0 0.0 0.0 0.1 0.1 0.0 0.1 0.1 0.6 1.0 1.3 2.4 2.3
0.0 0.0 0.1 0.2 0.2 0.0 0.2 0.0 0.0 0.0 0.0 0.0 0.0 0.0 0.0 0.0 0.0 0.0 0.0 0.0 0.0 0.0 0.0 0.0 0.0 0.0 0.0 0.0 0.0 0.0 0.0 0.0 0.0 0.0 0.0 0.1 0.3 0.0 0.0 0.0 0.1 0.0 0.2 0.2